Simultaneous Nadir Overpasses (SNOs) Predictions

Prediction of SNOs between AQUA and NPP Satellite Orbit:

Table of predicted SNOs for the next 14.0 days since TLE Epoch: 4/1/2012
Index Date (AQUA) Time (AQUA) Lat,Lon (AQUA) SZA (AQUA ) Date (NPP) Time (NPP) Lat,Lon (NPP) SZA (NPP ) Distance(km) Time Diff (sec)
1 04/03/2012 06:25:50 64.01, -55.38 104.40 04/03/2012 06:24:37 64.24, -56.77 104.71 72.53 73
2 04/03/2012 07:11:07 -77.40, 136.21 89.71 04/03/2012 07:11:05 -77.40, 136.20 89.71 0.17 2
3 04/03/2012 07:59:08 80.68, -34.70 85.50 04/03/2012 08:00:21 80.48, -33.85 85.33 27.19 73
4 04/05/2012 22:38:21 76.94, 82.68 89.83 04/05/2012 22:37:24 76.95, 82.71 89.87 0.99 57
5 04/05/2012 23:27:33 -77.65,-106.88 91.06 04/05/2012 23:27:53 -77.65,-106.88 91.07 0.15 20
6 04/08/2012
